Time,TemperatureF,DewpointF,PressureIn,WindDirection,WindDirectionDegrees,WindSpeedMPH,WindSpeedGustMPH,Humidity,HourlyPrecipIn,Conditions,Clouds,dailyrainin,SolarRadiationWatts/m^2,SoftwareType,DateUTC
2013-12-28 00:04:00,46.5,32.5,30.28,ENE,77,0.0,4.0,58,0.00,,,0.00,0,Wunderground v.1.15,2013-12-28 06:04:00,
2013-12-28 00:09:00,46.6,33.0,30.28,ENE,62,1.0,4.0,59,0.00,,,0.00,0,Wunderground v.1.15,2013-12-28 06:09:00,
2013-12-28 00:15:00,46.6,32.6,30.28,NE,50,0.0,1.0,58,0.00,,,0.00,0,Wunderground v.1.15,2013-12-28 06:15:00,
2013-12-28 00:20:00,46.6,32.6,30.29,East,95,0.0,1.0,58,0.00,,,0.00,0,Wunderground v.1.15,2013-12-28 06:20:00,
2013-12-28 00:25:00,46.6,32.6,30.29,ENE,67,0.0,1.0,58,0.00,,,0.00,0,Wunderground v.1.15,2013-12-28 06:25:00,
2013-12-28 00:30:00,46.7,32.3,30.28,North,5,0.0,1.0,57,0.00,,,0.00,0,Wunderground v.1.15,2013-12-28 06:30:00,
2013-12-28 00:36:00,46.7,33.1,30.28,ENE,63,0.0,1.0,59,0.00,,,0.00,0,Wunderground v.1.15,2013-12-28 06:36:00,
2013-12-28 00:41:00,46.6,32.6,30.29,ENE,58,0.0,1.0,58,0.00,,,0.00,0,Wunderground v.1.15,2013-12-28 06:41:00,
2013-12-28 00:46:00,46.6,32.6,30.28,East,89,0.0,1.0,58,0.00,,,0.00,0,Wunderground v.1.15,2013-12-28 06:46:00,
2013-12-28 00:51:00,46.6,33.0,30.28,NE,50,0.0,1.0,59,0.00,,,0.00,0,Wunderground v.1.15,2013-12-28 06:51:00,
2013-12-28 00:57:00,46.6,32.6,30.28,NE,48,0.0,1.0,58,0.00,,,0.00,0,Wunderground v.1.15,2013-12-28 06:57:00,
2013-12-28 01:02:00,46.5,32.5,30.28,ENE,75,0.0,0.0,58,0.00,,,0.00,0,Wunderground v.1.15,2013-12-28 07:02:00,
2013-12-28 01:07:00,46.5,32.5,30.28,ENE,75,0.0,0.0,58,0.00,,,0.00,0,Wunderground v.1.15,2013-12-28 07:07:00,
2013-12-28 01:12:00,46.4,32.4,30.28,ENE,75,0.0,0.0,58,0.00,,,0.00,0,Wunderground v.1.15,2013-12-28 07:12:00,
2013-12-28 01:17:00,46.4,32.4,30.27,ENE,74,0.0,0.0,58,0.00,,,0.00,0,Wunderground v.1.15,2013-12-28 07:17:00,
2013-12-28 01:22:00,46.3,32.3,30.27,ENE,74,0.0,0.0,58,0.00,,,0.00,0,Wunderground v.1.15,2013-12-28 07:22:00,
2013-12-28 01:27:00,46.3,32.7,30.27,ENE,74,0.0,0.0,59,0.00,,,0.00,0,Wunderground v.1.15,2013-12-28 07:27:00,
2013-12-28 01:32:00,46.2,32.7,30.27,ENE,74,0.0,0.0,59,0.00,,,0.00,0,Wunderground v.1.15,2013-12-28 07:32:00,
2013-12-28 01:37:00,46.2,32.7,30.27,ENE,74,0.0,0.0,59,0.00,,,0.00,0,Wunderground v.1.15,2013-12-28 07:37:00,
2013-12-28 01:43:00,46.2,32.7,30.27,ENE,74,0.0,0.0,59,0.00,,,0.00,0,Wunderground v.1.15,2013-12-28 07:43:00,
2013-12-28 01:48:00,46.1,33.0,30.26,ENE,74,0.0,0.0,60,0.00,,,0.00,0,Wunderground v.1.15,2013-12-28 07:48:00,
2013-12-28 01:53:00,46.1,33.0,30.26,ENE,69,0.0,0.0,60,0.00,,,0.00,0,Wunderground v.1.15,2013-12-28 07:53:00,
2013-12-28 01:58:00,46.1,33.0,30.26,ENE,68,0.0,0.0,60,0.00,,,0.00,0,Wunderground v.1.15,2013-12-28 07:58:00,
2013-12-28 02:04:00,46.1,33.0,30.25,ENE,68,0.0,0.0,60,0.00,,,0.00,0,Wunderground v.1.15,2013-12-28 08:04:00,
2013-12-28 02:09:00,46.0,33.3,30.25,ENE,68,0.0,0.0,61,0.00,,,0.00,0,Wunderground v.1.15,2013-12-28 08:09:00,
2013-12-28 02:14:00,46.0,33.7,30.25,NNE,29,0.0,1.0,62,0.00,,,0.00,0,Wunderground v.1.15,2013-12-28 08:14:00,
2013-12-28 02:20:00,46.0,33.3,30.25,NE,50,0.0,0.0,61,0.00,,,0.00,0,Wunderground v.1.15,2013-12-28 08:20:00,
2013-12-28 02:26:00,46.0,32.9,30.25,NE,50,0.0,2.0,60,0.00,,,0.00,0,Wunderground v.1.15,2013-12-28 08:26:00,
2013-12-28 02:31:00,46.0,33.7,30.25,NE,50,0.0,0.0,62,0.00,,,0.00,0,Wunderground v.1.15,2013-12-28 08:31:00,
2013-12-28 02:36:00,45.9,33.2,30.24,NNE,33,0.0,0.0,61,0.00,,,0.00,0,Wunderground v.1.15,2013-12-28 08:36:00,
2013-12-28 02:42:00,45.9,34.0,30.24,NNE,33,0.0,0.0,63,0.00,,,0.00,0,Wunderground v.1.15,2013-12-28 08:42:00,
2013-12-28 02:48:00,45.8,34.3,30.24,ENE,58,0.0,0.0,64,0.00,,,0.00,0,Wunderground v.1.15,2013-12-28 08:48:00,
2013-12-28 02:54:00,45.6,34.1,30.24,ENE,57,0.0,0.0,64,0.00,,,0.00,0,Wunderground v.1.15,2013-12-28 08:54:00,
2013-12-28 03:00:00,45.4,35.1,30.23,ENE,57,0.0,0.0,67,0.00,,,0.00,0,Wunderground v.1.15,2013-12-28 09:00:00,
2013-12-28 03:05:00,45.1,36.6,30.23,ENE,57,0.0,0.0,72,0.00,,,0.00,0,Wunderground v.1.15,2013-12-28 09:05:00,
2013-12-28 03:10:00,44.7,36.6,30.23,ENE,57,0.0,0.0,73,0.00,,,0.00,0,Wunderground v.1.15,2013-12-28 09:10:00,
2013-12-28 03:16:00,44.2,36.8,30.22,ENE,57,0.0,0.0,75,0.00,,,0.00,0,Wunderground v.1.15,2013-12-28 09:16:00,
2013-12-28 03:22:00,43.8,36.7,30.23,ENE,57,0.0,0.0,76,0.00,,,0.00,0,Wunderground v.1.15,2013-12-28 09:22:00,
2013-12-28 03:27:00,43.7,37.0,30.23,ENE,57,0.0,0.0,77,0.00,,,0.00,0,Wunderground v.1.15,2013-12-28 09:27:00,
2013-12-28 03:33:00,43.6,37.2,30.22,ENE,57,0.0,0.0,78,0.00,,,0.00,0,Wunderground v.1.15,2013-12-28 09:33:00,
2013-12-28 03:38:00,43.5,36.8,30.22,ENE,57,0.0,0.0,77,0.00,,,0.00,0,Wunderground v.1.15,2013-12-28 09:38:00,
2013-12-28 03:44:00,43.4,37.0,30.22,ENE,57,0.0,0.0,78,0.00,,,0.01,0,Wunderground v.1.15,2013-12-28 09:44:00,
2013-12-28 03:50:00,43.4,37.6,30.22,ENE,57,0.0,0.0,80,0.00,,,0.01,0,Wunderground v.1.15,2013-12-28 09:50:00,
2013-12-28 03:55:00,43.3,37.5,30.22,ENE,57,0.0,0.0,80,0.00,,,0.01,0,Wunderground v.1.15,2013-12-28 09:55:00,
2013-12-28 04:01:00,43.1,37.7,30.22,ENE,57,0.0,0.0,81,0.00,,,0.01,0,Wunderground v.1.15,2013-12-28 10:01:00,
2013-12-28 04:07:00,42.9,38.4,30.21,ENE,57,0.0,0.0,84,0.00,,,0.01,0,Wunderground v.1.15,2013-12-28 10:07:00,
2013-12-28 04:12:00,42.7,38.5,30.21,ENE,57,0.0,0.0,85,0.00,,,0.01,0,Wunderground v.1.15,2013-12-28 10:12:00,
2013-12-28 04:18:00,42.4,38.5,30.21,ENE,57,0.0,0.0,86,0.00,,,0.02,0,Wunderground v.1.15,2013-12-28 10:18:00,
2013-12-28 04:24:00,42.1,38.5,30.21,ENE,57,0.0,5.0,87,0.00,,,0.02,0,Wunderground v.1.15,2013-12-28 10:24:00,
2013-12-28 04:29:00,42.0,38.7,30.21,ENE,57,0.0,5.0,88,0.00,,,0.02,0,Wunderground v.1.15,2013-12-28 10:29:00,
2013-12-28 04:34:00,41.9,38.9,30.21,ENE,57,0.0,0.0,89,0.00,,,0.02,0,Wunderground v.1.15,2013-12-28 10:34:00,
2013-12-28 04:40:00,41.8,38.8,30.21,ENE,57,0.0,0.0,89,0.00,,,0.02,0,Wunderground v.1.15,2013-12-28 10:40:00,
2013-12-28 04:45:00,41.8,38.8,30.20,ENE,57,0.0,0.0,89,0.00,,,0.02,0,Wunderground v.1.15,2013-12-28 10:45:00,
2013-12-28 04:50:00,41.8,38.8,30.20,ENE,57,0.0,0.0,89,0.00,,,0.02,0,Wunderground v.1.15,2013-12-28 10:50:00,
2013-12-28 04:55:00,41.8,38.8,30.20,ENE,57,0.0,0.0,89,0.00,,,0.02,0,Wunderground v.1.15,2013-12-28 10:55:00,
2013-12-28 05:01:00,41.8,38.5,30.20,NE,52,1.0,1.0,88,0.00,,,0.02,0,Wunderground v.1.15,2013-12-28 11:01:00,
2013-12-28 05:06:00,41.9,38.9,30.20,NE,52,1.0,1.0,89,0.00,,,0.02,0,Wunderground v.1.15,2013-12-28 11:06:00,
2013-12-28 05:11:00,41.9,38.6,30.19,NE,52,0.0,0.0,88,0.00,,,0.02,0,Wunderground v.1.15,2013-12-28 11:11:00,
2013-12-28 05:16:00,41.9,38.6,30.18,NE,49,1.0,3.0,88,0.00,,,0.02,0,Wunderground v.1.15,2013-12-28 11:16:00,
2013-12-28 05:21:00,42.0,38.4,30.18,NE,49,1.0,4.0,87,0.00,,,0.02,0,Wunderground v.1.15,2013-12-28 11:21:00,
2013-12-28 05:27:00,42.1,38.8,30.19,NE,49,1.0,4.0,88,0.00,,,0.02,0,Wunderground v.1.15,2013-12-28 11:27:00,
2013-12-28 05:32:00,42.1,38.5,30.19,NE,50,1.0,1.0,87,0.00,,,0.02,0,Wunderground v.1.15,2013-12-28 11:32:00,
2013-12-28 05:37:00,42.1,38.5,30.18,NE,50,0.0,1.0,87,0.00,,,0.02,0,Wunderground v.1.15,2013-12-28 11:37:00,
2013-12-28 05:42:00,42.2,38.6,30.18,NE,48,0.0,3.0,87,0.00,,,0.02,0,Wunderground v.1.15,2013-12-28 11:42:00,
2013-12-28 05:48:00,42.2,38.9,30.18,NE,49,0.0,3.0,88,0.00,,,0.02,0,Wunderground v.1.15,2013-12-28 11:48:00,
2013-12-28 05:53:00,42.2,38.6,30.18,NE,49,0.0,0.0,87,0.00,,,0.03,0,Wunderground v.1.15,2013-12-28 11:53:00,
2013-12-28 05:58:00,42.2,38.9,30.18,NE,48,0.0,0.0,88,0.00,,,0.03,0,Wunderground v.1.15,2013-12-28 11:58:00,
2013-12-28 06:03:00,42.2,38.9,30.18,NE,48,0.0,0.0,88,0.00,,,0.03,0,Wunderground v.1.15,2013-12-28 12:03:00,
2013-12-28 06:08:00,42.3,39.0,30.19,NE,48,0.0,0.0,88,0.00,,,0.03,0,Wunderground v.1.15,2013-12-28 12:08:00,
2013-12-28 06:14:00,42.3,39.0,30.20,NE,48,0.0,0.0,88,0.00,,,0.03,0,Wunderground v.1.15,2013-12-28 12:14:00,
2013-12-28 06:19:00,42.4,39.1,30.19,NE,48,0.0,0.0,88,0.00,,,0.03,0,Wunderground v.1.15,2013-12-28 12:19:00,
2013-12-28 06:24:00,42.4,39.1,30.20,NE,48,0.0,0.0,88,0.00,,,0.03,0,Wunderground v.1.15,2013-12-28 12:24:00,
2013-12-28 06:29:00,42.4,39.4,30.20,NE,48,0.0,0.0,89,0.00,,,0.03,0,Wunderground v.1.15,2013-12-28 12:29:00,
2013-12-28 06:34:00,42.4,39.4,30.20,NE,48,0.0,2.0,89,0.00,,,0.03,0,Wunderground v.1.15,2013-12-28 12:34:00,
2013-12-28 06:40:00,42.3,39.6,30.21,NE,48,0.0,0.0,90,0.00,,,0.04,0,Wunderground v.1.15,2013-12-28 12:40:00,
2013-12-28 06:45:00,42.2,39.5,30.22,NE,48,0.0,0.0,90,0.00,,,0.04,0,Wunderground v.1.15,2013-12-28 12:45:00,
2013-12-28 06:50:00,42.1,39.7,30.22,NE,48,0.0,0.0,91,0.06,,,0.05,0,Wunderground v.1.15,2013-12-28 12:50:00,
2013-12-28 06:56:00,42.1,39.9,30.22,NE,48,0.0,0.0,92,0.09,,,0.05,0,Wunderground v.1.15,2013-12-28 12:56:00,
2013-12-28 07:01:00,42.1,39.9,30.22,NE,48,0.0,0.0,92,0.09,,,0.06,0,Wunderground v.1.15,2013-12-28 13:01:00,
2013-12-28 07:06:00,42.1,40.2,30.22,NE,48,0.0,0.0,93,0.07,,,0.07,0,Wunderground v.1.15,2013-12-28 13:06:00,
2013-12-28 07:11:00,42.0,40.1,30.22,NE,48,0.0,0.0,93,0.07,,,0.07,0,Wunderground v.1.15,2013-12-28 13:11:00,
2013-12-28 07:16:00,42.0,40.1,30.22,NE,48,0.0,0.0,93,0.09,,,0.08,0,Wunderground v.1.15,2013-12-28 13:16:00,
2013-12-28 07:22:00,41.9,40.0,30.21,NE,46,0.0,1.0,93,0.09,,,0.09,0,Wunderground v.1.15,2013-12-28 13:22:00,
2013-12-28 07:27:00,41.8,40.2,30.21,NE,46,0.0,2.0,94,0.09,,,0.10,0,Wunderground v.1.15,2013-12-28 13:27:00,
2013-12-28 07:32:00,41.8,40.2,30.21,NE,36,1.0,3.0,94,0.13,,,0.11,5,Wunderground v.1.15,2013-12-28 13:32:00,
2013-12-28 07:37:00,41.8,40.2,30.21,NE,38,1.0,3.0,94,0.20,,,0.13,9,Wunderground v.1.15,2013-12-28 13:37:00,
2013-12-28 07:42:00,41.8,40.2,30.21,NE,37,1.0,1.0,94,0.13,,,0.14,7,Wunderground v.1.15,2013-12-28 13:42:00,
2013-12-28 07:47:00,41.8,40.5,30.20,NNE,15,1.0,4.0,95,0.10,,,0.14,12,Wunderground v.1.15,2013-12-28 13:47:00,
2013-12-28 07:52:00,41.8,40.5,30.20,NNE,21,1.0,1.0,95,0.10,,,0.15,19,Wunderground v.1.15,2013-12-28 13:52:00,
2013-12-28 07:57:00,41.8,40.5,30.20,NE,56,1.0,6.0,95,0.06,,,0.15,21,Wunderground v.1.15,2013-12-28 13:57:00,
2013-12-28 08:02:00,41.8,40.5,30.21,NE,34,1.0,4.0,95,0.06,,,0.16,18,Wunderground v.1.15,2013-12-28 14:02:00,
2013-12-28 08:07:00,41.8,40.5,30.21,NE,34,0.0,4.0,95,0.06,,,0.16,12,Wunderground v.1.15,2013-12-28 14:07:00,
2013-12-28 08:12:00,41.9,40.6,30.23,NE,34,0.0,0.0,95,0.04,,,0.16,9,Wunderground v.1.15,2013-12-28 14:12:00,
2013-12-28 08:17:00,41.9,40.6,30.24,NE,34,0.0,0.0,95,0.00,,,0.16,7,Wunderground v.1.15,2013-12-28 14:17:00,
2013-12-28 08:22:00,42.0,40.7,30.24,NE,34,0.0,0.0,95,0.00,,,0.17,7,Wunderground v.1.15,2013-12-28 14:22:00,
2013-12-28 08:27:00,42.1,40.8,30.24,NE,34,0.0,0.0,95,0.00,,,0.17,9,Wunderground v.1.15,2013-12-28 14:27:00,
2013-12-28 08:32:00,42.2,40.9,30.23,NE,34,0.0,0.0,95,0.04,,,0.17,21,Wunderground v.1.15,2013-12-28 14:32:00,
2013-12-28 08:37:00,42.2,40.9,30.22,NE,34,0.0,0.0,95,0.04,,,0.18,30,Wunderground v.1.15,2013-12-28 14:37:00,
2013-12-28 08:42:00,42.2,40.9,30.21,NE,34,0.0,0.0,95,0.08,,,0.19,25,Wunderground v.1.15,2013-12-28 14:42:00,
2013-12-28 08:47:00,42.2,40.9,30.21,NE,34,0.0,0.0,95,0.14,,,0.20,26,Wunderground v.1.15,2013-12-28 14:47:00,
2013-12-28 08:52:00,42.3,41.2,30.21,NNE,32,0.0,1.0,96,0.13,,,0.21,37,Wunderground v.1.15,2013-12-28 14:52:00,
2013-12-28 08:58:00,42.3,41.2,30.20,East,81,0.0,1.0,96,0.10,,,0.22,28,Wunderground v.1.15,2013-12-28 14:58:00,
2013-12-28 09:03:00,42.3,41.2,30.20,NNE,31,1.0,4.0,96,0.05,,,0.22,18,Wunderground v.1.15,2013-12-28 15:03:00,
2013-12-28 09:08:00,42.3,41.2,30.20,NNE,31,1.0,4.0,96,0.04,,,0.22,28,Wunderground v.1.15,2013-12-28 15:08:00,
2013-12-28 09:13:00,42.3,41.2,30.20,NNE,31,0.0,1.0,96,0.00,,,0.23,33,Wunderground v.1.15,2013-12-28 15:13:00,
2013-12-28 09:18:00,42.4,41.3,30.19,North,5,0.0,2.0,96,0.12,,,0.24,35,Wunderground v.1.15,2013-12-28 15:18:00,
2013-12-28 09:23:00,42.5,41.4,30.20,NNE,25,1.0,1.0,96,0.10,,,0.25,37,Wunderground v.1.15,2013-12-28 15:23:00,
2013-12-28 09:28:00,42.5,41.4,30.20,NE,43,1.0,5.0,96,0.10,,,0.26,42,Wunderground v.1.15,2013-12-28 15:28:00,
2013-12-28 09:33:00,42.6,41.5,30.20,NE,46,1.0,1.0,96,0.10,,,0.26,46,Wunderground v.1.15,2013-12-28 15:33:00,
2013-12-28 09:38:00,42.7,41.6,30.21,NE,46,0.0,1.0,96,0.05,,,0.26,40,Wunderground v.1.15,2013-12-28 15:38:00,
2013-12-28 09:43:00,42.8,41.7,30.21,NE,46,0.0,0.0,96,0.04,,,0.26,26,Wunderground v.1.15,2013-12-28 15:43:00,
2013-12-28 09:48:00,42.9,41.8,30.20,NE,53,0.0,0.0,96,0.00,,,0.27,21,Wunderground v.1.15,2013-12-28 15:48:00,
2013-12-28 09:54:00,42.9,41.8,30.19,NE,43,0.0,3.0,96,0.00,,,0.27,11,Wunderground v.1.15,2013-12-28 15:54:00,
2013-12-28 10:00:00,42.9,41.8,30.18,NE,40,1.0,4.0,96,0.06,,,0.28,12,Wunderground v.1.15,2013-12-28 16:00:00,
2013-12-28 10:05:00,42.9,41.8,30.18,East,85,1.0,4.0,96,0.06,,,0.28,18,Wunderground v.1.15,2013-12-28 16:05:00,
2013-12-28 10:10:00,42.9,41.8,30.17,ENE,69,1.0,1.0,96,0.19,,,0.30,39,Wunderground v.1.15,2013-12-28 16:10:00,
2013-12-28 10:15:00,43.0,42.2,30.17,ENE,66,1.0,5.0,97,0.18,,,0.31,49,Wunderground v.1.15,2013-12-28 16:15:00,
2013-12-28 10:21:00,43.1,42.3,30.17,ENE,66,0.0,1.0,97,0.12,,,0.32,65,Wunderground v.1.15,2013-12-28 16:21:00,
2013-12-28 10:26:00,43.2,42.4,30.16,ENE,63,0.0,1.0,97,0.10,,,0.33,62,Wunderground v.1.15,2013-12-28 16:26:00,
2013-12-28 10:31:00,43.3,42.5,30.16,NE,40,1.0,1.0,97,0.09,,,0.34,77,Wunderground v.1.15,2013-12-28 16:31:00,
2013-12-28 10:36:00,43.4,42.6,30.16,NE,40,1.0,1.0,97,0.08,,,0.34,76,Wunderground v.1.15,2013-12-28 16:36:00,
2013-12-28 10:42:00,43.6,42.8,30.16,ENE,61,0.0,0.0,97,0.08,,,0.35,77,Wunderground v.1.15,2013-12-28 16:42:00,
2013-12-28 10:47:00,43.7,42.9,30.16,ENE,61,0.0,0.0,97,0.09,,,0.36,111,Wunderground v.1.15,2013-12-28 16:47:00,
2013-12-28 10:52:00,43.9,43.1,30.15,NE,52,0.0,0.0,97,0.08,,,0.37,128,Wunderground v.1.15,2013-12-28 16:52:00,
2013-12-28 10:57:00,44.1,43.3,30.14,NE,52,0.0,0.0,97,0.08,,,0.37,199,Wunderground v.1.15,2013-12-28 16:57:00,
2013-12-28 11:02:00,44.4,43.6,30.14,NE,48,1.0,5.0,97,0.05,,,0.37,134,Wunderground v.1.15,2013-12-28 17:02:00,
2013-12-28 11:08:00,44.5,43.7,30.14,NE,47,1.0,5.0,97,0.00,,,0.37,74,Wunderground v.1.15,2013-12-28 17:08:00,
2013-12-28 11:13:00,44.5,43.7,30.13,NE,46,1.0,2.0,97,0.00,,,0.37,84,Wunderground v.1.15,2013-12-28 17:13:00,
2013-12-28 11:18:00,44.6,43.8,30.13,NE,52,1.0,3.0,97,0.00,,,0.37,53,Wunderground v.1.15,2013-12-28 17:18:00,
2013-12-28 11:23:00,44.7,43.9,30.14,NE,52,1.0,1.0,97,0.00,,,0.37,39,Wunderground v.1.15,2013-12-28 17:23:00,
2013-12-28 11:28:00,44.7,43.9,30.13,NE,52,0.0,1.0,97,0.00,,,0.38,70,Wunderground v.1.15,2013-12-28 17:28:00,
2013-12-28 11:33:00,44.8,44.0,30.12,NE,54,0.0,0.0,97,0.00,,,0.38,111,Wunderground v.1.15,2013-12-28 17:33:00,
2013-12-28 11:38:00,44.9,44.1,30.11,NE,55,1.0,2.0,97,0.00,,,0.38,141,Wunderground v.1.15,2013-12-28 17:38:00,
2013-12-28 11:43:00,45.0,44.2,30.10,NE,50,1.0,3.0,97,0.00,,,0.39,148,Wunderground v.1.15,2013-12-28 17:43:00,
2013-12-28 11:48:00,45.2,44.4,30.09,NE,50,1.0,3.0,97,0.00,,,0.39,118,Wunderground v.1.15,2013-12-28 17:48:00,
2013-12-28 11:53:00,45.2,44.4,30.08,NNE,32,1.0,8.0,97,0.00,,,0.39,93,Wunderground v.1.15,2013-12-28 17:53:00,
2013-12-28 11:58:00,45.3,44.5,30.08,NE,42,2.0,8.0,97,0.04,,,0.40,111,Wunderground v.1.15,2013-12-28 17:58:00,
2013-12-28 12:03:00,45.4,44.6,30.08,ENE,75,1.0,1.0,97,0.04,,,0.40,83,Wunderground v.1.15,2013-12-28 18:03:00,
2013-12-28 12:08:00,45.5,44.7,30.09,ENE,75,0.0,1.0,97,0.04,,,0.40,65,Wunderground v.1.15,2013-12-28 18:08:00,
2013-12-28 12:14:00,45.6,44.8,30.09,ENE,75,0.0,0.0,97,0.00,,,0.40,54,Wunderground v.1.15,2013-12-28 18:14:00,
2013-12-28 12:19:00,45.7,44.9,30.09,ENE,75,0.0,0.0,97,0.00,,,0.40,70,Wunderground v.1.15,2013-12-28 18:19:00,
2013-12-28 12:24:00,45.8,45.0,30.08,ENE,75,0.0,0.0,97,0.00,,,0.40,69,Wunderground v.1.15,2013-12-28 18:24:00,
2013-12-28 12:29:00,45.8,45.0,30.07,ENE,73,0.0,0.0,97,0.00,,,0.41,63,Wunderground v.1.15,2013-12-28 18:29:00,
2013-12-28 12:34:00,45.9,45.1,30.06,NNE,15,0.0,4.0,97,0.07,,,0.42,44,Wunderground v.1.15,2013-12-28 18:34:00,
2013-12-28 12:40:00,45.9,45.1,30.06,NNE,32,1.0,1.0,97,0.17,,,0.43,62,Wunderground v.1.15,2013-12-28 18:40:00,
2013-12-28 12:45:00,45.9,45.1,30.06,NNE,30,1.0,1.0,97,0.36,,,0.45,90,Wunderground v.1.15,2013-12-28 18:45:00,
2013-12-28 12:50:00,46.0,45.2,30.06,NNE,30,0.0,0.0,97,0.22,,,0.47,97,Wunderground v.1.15,2013-12-28 18:50:00,
2013-12-28 12:55:00,46.1,45.3,30.06,NNE,30,0.0,0.0,97,0.13,,,0.48,149,Wunderground v.1.15,2013-12-28 18:55:00,
2013-12-28 13:00:00,46.3,45.8,30.05,NNE,29,0.0,0.0,98,0.10,,,0.48,148,Wunderground v.1.15,2013-12-28 19:00:00,
2013-12-28 13:06:00,46.4,45.9,30.06,NNE,27,0.0,0.0,98,0.06,,,0.49,128,Wunderground v.1.15,2013-12-28 19:06:00,
2013-12-28 13:11:00,46.5,46.0,30.06,NW,325,0.0,0.0,98,0.06,,,0.49,69,Wunderground v.1.15,2013-12-28 19:11:00,
2013-12-28 13:16:00,46.4,45.6,30.05,NW,319,1.0,2.0,97,0.05,,,0.49,72,Wunderground v.1.15,2013-12-28 19:16:00,
2013-12-28 13:21:00,46.5,45.7,30.06,NW,319,1.0,1.0,97,0.00,,,0.49,47,Wunderground v.1.15,2013-12-28 19:21:00,
2013-12-28 13:26:00,46.5,45.7,30.05,NW,319,0.0,1.0,97,0.00,,,0.49,39,Wunderground v.1.15,2013-12-28 19:26:00,
2013-12-28 13:31:00,46.5,45.7,30.04,WNW,294,0.0,0.0,97,0.00,,,0.49,72,Wunderground v.1.15,2013-12-28 19:31:00,
2013-12-28 13:36:00,46.4,45.6,30.03,NW,312,0.0,0.0,97,0.00,,,0.49,69,Wunderground v.1.15,2013-12-28 19:36:00,
2013-12-28 13:41:00,46.4,45.6,30.03,NW,312,0.0,0.0,97,0.00,,,0.49,83,Wunderground v.1.15,2013-12-28 19:41:00,
2013-12-28 13:46:00,46.4,45.6,30.03,NW,313,0.0,0.0,97,0.00,,,0.49,109,Wunderground v.1.15,2013-12-28 19:46:00,
2013-12-28 13:51:00,46.5,45.7,30.02,NW,321,0.0,0.0,97,0.00,,,0.49,90,Wunderground v.1.15,2013-12-28 19:51:00,
2013-12-28 13:56:00,46.6,45.8,30.02,NNW,344,0.0,4.0,97,0.00,,,0.49,100,Wunderground v.1.15,2013-12-28 19:56:00,
2013-12-28 14:01:00,46.6,45.8,30.02,NE,41,1.0,1.0,97,0.00,,,0.49,67,Wunderground v.1.15,2013-12-28 20:01:00,
2013-12-28 14:06:00,46.7,45.9,30.03,NE,38,1.0,3.0,97,0.00,,,0.49,33,Wunderground v.1.15,2013-12-28 20:06:00,
2013-12-28 14:11:00,46.6,45.8,30.02,WNW,282,0.0,0.0,97,0.00,,,0.50,30,Wunderground v.1.15,2013-12-28 20:11:00,
2013-12-28 14:16:00,46.6,45.8,30.03,NW,325,0.0,0.0,97,0.00,,,0.50,25,Wunderground v.1.15,2013-12-28 20:16:00,
2013-12-28 14:21:00,46.6,45.8,30.03,NW,325,0.0,0.0,97,0.05,,,0.51,26,Wunderground v.1.15,2013-12-28 20:21:00,
2013-12-28 14:26:00,46.6,45.8,30.02,NW,325,0.0,0.0,97,0.05,,,0.51,28,Wunderground v.1.15,2013-12-28 20:26:00,
2013-12-28 14:31:00,46.6,45.8,30.02,NW,325,0.0,0.0,97,0.05,,,0.51,23,Wunderground v.1.15,2013-12-28 20:31:00,
2013-12-28 14:36:00,46.7,45.9,30.02,NW,325,0.0,0.0,97,0.04,,,0.51,26,Wunderground v.1.15,2013-12-28 20:36:00,
2013-12-28 14:41:00,46.7,45.9,30.02,NW,325,0.0,0.0,97,0.00,,,0.51,35,Wunderground v.1.15,2013-12-28 20:41:00,
2013-12-28 14:46:00,46.5,45.7,30.02,NW,325,0.0,1.0,97,0.00,,,0.52,33,Wunderground v.1.15,2013-12-28 20:46:00,
2013-12-28 14:51:00,46.5,45.7,30.02,NW,325,0.0,0.0,97,0.00,,,0.52,30,Wunderground v.1.15,2013-12-28 20:51:00,
2013-12-28 14:56:00,46.5,45.7,30.01,NW,325,0.0,0.0,97,0.06,,,0.53,19,Wunderground v.1.15,2013-12-28 20:56:00,
2013-12-28 15:01:00,46.4,45.6,30.01,NW,326,0.0,0.0,97,0.06,,,0.53,16,Wunderground v.1.15,2013-12-28 21:01:00,
2013-12-28 15:06:00,46.4,45.6,30.01,NW,326,0.0,3.0,97,0.05,,,0.54,12,Wunderground v.1.15,2013-12-28 21:06:00,
2013-12-28 15:11:00,46.3,45.5,30.01,NW,326,0.0,1.0,97,0.05,,,0.54,18,Wunderground v.1.15,2013-12-28 21:11:00,
2013-12-28 15:17:00,46.3,45.5,30.00,NE,38,0.0,2.0,97,0.09,,,0.55,19,Wunderground v.1.15,2013-12-28 21:17:00,
2013-12-28 15:22:00,46.3,45.5,30.01,NE,34,0.0,2.0,97,0.22,,,0.57,12,Wunderground v.1.15,2013-12-28 21:22:00,
2013-12-28 15:27:00,46.3,45.5,30.00,NE,34,1.0,3.0,97,0.34,,,0.59,14,Wunderground v.1.15,2013-12-28 21:27:00,
2013-12-28 15:33:00,46.2,45.4,30.01,NNE,33,1.0,4.0,97,0.12,,,0.60,11,Wunderground v.1.15,2013-12-28 21:33:00,
2013-12-28 15:38:00,46.2,45.4,30.01,NNE,33,0.0,4.0,97,0.09,,,0.61,14,Wunderground v.1.15,2013-12-28 21:38:00,
2013-12-28 15:43:00,46.2,45.4,30.01,NNE,33,0.0,0.0,97,0.10,,,0.62,12,Wunderground v.1.15,2013-12-28 21:43:00,
2013-12-28 15:48:00,46.1,45.3,30.00,NNE,33,0.0,1.0,97,0.19,,,0.63,19,Wunderground v.1.15,2013-12-28 21:48:00,
2013-12-28 15:53:00,46.1,45.3,30.00,NNE,32,0.0,0.0,97,0.13,,,0.64,19,Wunderground v.1.15,2013-12-28 21:53:00,
2013-12-28 15:58:00,46.1,45.3,29.99,NNE,32,0.0,0.0,97,0.12,,,0.65,18,Wunderground v.1.15,2013-12-28 21:58:00,
2013-12-28 16:03:00,46.1,45.3,29.98,NNE,32,0.0,0.0,97,0.07,,,0.66,21,Wunderground v.1.15,2013-12-28 22:03:00,
2013-12-28 16:08:00,46.0,45.2,29.97,NNE,32,0.0,0.0,97,0.07,,,0.66,33,Wunderground v.1.15,2013-12-28 22:08:00,
2013-12-28 16:13:00,46.0,45.2,29.98,NNE,29,0.0,4.0,97,0.08,,,0.67,40,Wunderground v.1.15,2013-12-28 22:13:00,
2013-12-28 16:18:00,46.0,45.2,29.98,NNE,29,0.0,4.0,97,0.15,,,0.69,28,Wunderground v.1.15,2013-12-28 22:18:00,
2013-12-28 16:23:00,45.9,45.1,29.98,NNE,19,1.0,4.0,97,0.10,,,0.69,23,Wunderground v.1.15,2013-12-28 22:23:00,
2013-12-28 16:28:00,45.9,45.1,29.97,NNW,337,1.0,4.0,97,0.06,,,0.69,21,Wunderground v.1.15,2013-12-28 22:28:00,
2013-12-28 16:33:00,45.9,45.1,29.97,NNW,337,1.0,1.0,97,0.04,,,0.69,18,Wunderground v.1.15,2013-12-28 22:33:00,
2013-12-28 16:38:00,45.9,45.1,29.96,NNW,338,0.0,2.0,97,0.00,,,0.69,18,Wunderground v.1.15,2013-12-28 22:38:00,
2013-12-28 16:43:00,45.8,45.0,29.95,NE,43,1.0,5.0,97,0.00,,,0.69,14,Wunderground v.1.15,2013-12-28 22:43:00,
2013-12-28 16:48:00,45.7,44.9,29.95,NNW,338,1.0,6.0,97,0.00,,,0.69,11,Wunderground v.1.15,2013-12-28 22:48:00,
2013-12-28 16:53:00,45.7,44.9,29.97,North,355,1.0,1.0,97,0.00,,,0.69,5,Wunderground v.1.15,2013-12-28 22:53:00,
2013-12-28 16:58:00,45.7,44.9,29.98,North,354,0.0,1.0,97,0.00,,,0.69,0,Wunderground v.1.15,2013-12-28 22:58:00,
2013-12-28 17:04:00,45.7,44.9,29.99,WNW,296,0.0,0.0,97,0.00,,,0.69,0,Wunderground v.1.15,2013-12-28 23:04:00,
2013-12-28 17:09:00,45.7,44.9,30.00,WNW,291,1.0,2.0,97,0.00,,,0.69,0,Wunderground v.1.15,2013-12-28 23:09:00,
2013-12-28 17:15:00,45.7,44.9,30.00,WNW,291,1.0,1.0,97,0.00,,,0.69,0,Wunderground v.1.15,2013-12-28 23:15:00,
2013-12-28 17:20:00,45.7,44.9,30.00,WNW,289,0.0,0.0,97,0.00,,,0.69,0,Wunderground v.1.15,2013-12-28 23:20:00,
2013-12-28 17:25:00,45.7,45.2,30.01,WNW,289,0.0,0.0,98,0.00,,,0.69,0,Wunderground v.1.15,2013-12-28 23:25:00,
2013-12-28 17:30:00,45.7,45.2,30.00,WNW,289,0.0,0.0,98,0.00,,,0.69,0,Wunderground v.1.15,2013-12-28 23:30:00,
2013-12-28 17:35:00,45.7,45.2,30.00,WNW,289,0.0,0.0,98,0.00,,,0.69,0,Wunderground v.1.15,2013-12-28 23:35:00,
2013-12-28 17:40:00,45.7,45.2,30.00,WNW,291,0.0,0.0,98,0.00,,,0.69,0,Wunderground v.1.15,2013-12-28 23:40:00,
2013-12-28 17:45:00,45.6,45.1,30.00,WNW,292,0.0,3.0,98,0.00,,,0.69,0,Wunderground v.1.15,2013-12-28 23:45:00,
2013-12-28 17:50:00,45.6,45.1,30.00,WNW,293,0.0,0.0,98,0.00,,,0.70,0,Wunderground v.1.15,2013-12-28 23:50:00,
2013-12-28 17:55:00,45.6,45.1,30.00,WNW,294,0.0,1.0,98,0.00,,,0.70,0,Wunderground v.1.15,2013-12-28 23:55:00,
2013-12-28 18:00:00,45.6,45.1,30.00,WNW,294,0.0,0.0,98,0.00,,,0.70,0,Wunderground v.1.15,2013-12-29 00:00:00,
2013-12-28 18:05:00,45.6,45.1,30.00,WNW,294,0.0,0.0,98,0.00,,,0.70,0,Wunderground v.1.15,2013-12-29 00:05:00,
2013-12-28 18:10:00,45.6,45.1,30.00,WNW,294,0.0,0.0,98,0.00,,,0.70,0,Wunderground v.1.15,2013-12-29 00:10:00,
2013-12-28 18:16:00,45.6,45.1,29.99,WNW,294,0.0,0.0,98,0.00,,,0.70,0,Wunderground v.1.15,2013-12-29 00:16:00,
2013-12-28 18:21:00,45.6,45.1,30.00,WNW,294,0.0,0.0,98,0.00,,,0.70,0,Wunderground v.1.15,2013-12-29 00:21:00,
2013-12-28 18:26:00,45.6,44.8,29.99,WNW,294,0.0,0.0,97,0.00,,,0.70,0,Wunderground v.1.15,2013-12-29 00:26:00,
2013-12-28 18:32:00,45.6,44.8,30.00,WNW,294,0.0,0.0,97,0.00,,,0.70,0,Wunderground v.1.15,2013-12-29 00:32:00,
2013-12-28 18:38:00,45.6,44.8,30.00,WNW,294,0.0,0.0,97,0.00,,,0.70,0,Wunderground v.1.15,2013-12-29 00:38:00,
2013-12-28 18:43:00,45.6,44.8,30.00,WNW,294,0.0,0.0,97,0.00,,,0.71,0,Wunderground v.1.15,2013-12-29 00:43:00,
2013-12-28 18:48:00,45.5,44.7,30.00,WNW,294,0.0,0.0,97,0.00,,,0.71,0,Wunderground v.1.15,2013-12-29 00:48:00,
2013-12-28 18:53:00,45.6,44.8,30.01,WNW,294,0.0,0.0,97,0.00,,,0.71,0,Wunderground v.1.15,2013-12-29 00:53:00,
2013-12-28 18:58:00,45.6,45.1,30.00,WNW,294,0.0,0.0,98,0.04,,,0.72,0,Wunderground v.1.15,2013-12-29 00:58:00,
2013-12-28 19:04:00,45.5,44.7,30.00,WNW,294,0.0,0.0,97,0.07,,,0.73,0,Wunderground v.1.15,2013-12-29 01:04:00,
2013-12-28 19:09:00,45.5,44.7,30.00,WNW,294,0.0,0.0,97,0.07,,,0.73,0,Wunderground v.1.15,2013-12-29 01:09:00,
2013-12-28 19:14:00,45.5,44.7,30.00,WNW,294,0.0,0.0,97,0.05,,,0.73,0,Wunderground v.1.15,2013-12-29 01:14:00,
2013-12-28 19:19:00,45.5,45.0,30.00,WNW,294,0.0,0.0,98,0.04,,,0.73,0,Wunderground v.1.15,2013-12-29 01:19:00,
2013-12-28 19:24:00,45.5,45.0,30.01,WNW,294,0.0,0.0,98,0.00,,,0.73,0,Wunderground v.1.15,2013-12-29 01:24:00,
2013-12-28 19:30:00,45.5,45.0,30.01,WNW,294,0.0,0.0,98,0.00,,,0.73,0,Wunderground v.1.15,2013-12-29 01:30:00,
2013-12-28 19:35:00,45.5,45.0,30.00,WNW,294,0.0,3.0,98,0.00,,,0.73,0,Wunderground v.1.15,2013-12-29 01:35:00,
2013-12-28 19:41:00,45.4,44.9,30.00,WNW,294,1.0,3.0,98,0.00,,,0.73,0,Wunderground v.1.15,2013-12-29 01:41:00,
2013-12-28 19:46:00,45.4,44.9,30.00,WNW,297,1.0,5.0,98,0.00,,,0.73,0,Wunderground v.1.15,2013-12-29 01:46:00,
2013-12-28 19:51:00,45.4,44.9,30.00,WNW,297,1.0,1.0,98,0.00,,,0.74,0,Wunderground v.1.15,2013-12-29 01:51:00,
2013-12-28 19:56:00,45.4,44.9,29.99,WNW,297,0.0,1.0,98,0.00,,,0.74,0,Wunderground v.1.15,2013-12-29 01:56:00,
2013-12-28 20:01:00,45.4,44.9,30.00,WNW,297,0.0,0.0,98,0.00,,,0.74,0,Wunderground v.1.15,2013-12-29 02:01:00,
2013-12-28 20:06:00,45.3,44.8,30.00,WNW,298,0.0,0.0,98,0.00,,,0.74,0,Wunderground v.1.15,2013-12-29 02:06:00,
2013-12-28 20:11:00,45.4,44.9,30.00,WNW,298,0.0,0.0,98,0.00,,,0.74,0,Wunderground v.1.15,2013-12-29 02:11:00,
2013-12-28 20:16:00,45.4,44.9,29.99,WNW,298,0.0,2.0,98,0.00,,,0.74,0,Wunderground v.1.15,2013-12-29 02:16:00,
2013-12-28 20:21:00,45.4,44.9,29.99,WNW,298,0.0,0.0,98,0.00,,,0.74,0,Wunderground v.1.15,2013-12-29 02:21:00,
2013-12-28 20:26:00,45.4,44.9,29.99,WNW,298,0.0,0.0,98,0.00,,,0.74,0,Wunderground v.1.15,2013-12-29 02:26:00,
2013-12-28 20:31:00,45.4,44.9,30.00,WNW,298,0.0,0.0,98,0.00,,,0.74,0,Wunderground v.1.15,2013-12-29 02:31:00,
2013-12-28 20:36:00,45.4,44.9,29.99,WNW,298,0.0,0.0,98,0.00,,,0.74,0,Wunderground v.1.15,2013-12-29 02:36:00,
2013-12-28 20:41:00,45.4,44.9,29.99,WNW,298,0.0,0.0,98,0.00,,,0.74,0,Wunderground v.1.15,2013-12-29 02:41:00,
2013-12-28 20:46:00,45.4,44.9,29.99,WNW,298,0.0,2.0,98,0.00,,,0.74,0,Wunderground v.1.15,2013-12-29 02:46:00,
2013-12-28 20:51:00,45.4,44.9,29.99,WNW,298,0.0,0.0,98,0.00,,,0.74,0,Wunderground v.1.15,2013-12-29 02:51:00,
2013-12-28 20:56:00,45.4,44.9,29.99,WNW,298,0.0,0.0,98,0.00,,,0.74,0,Wunderground v.1.15,2013-12-29 02:56:00,
2013-12-28 21:01:00,45.4,44.9,29.99,WNW,298,0.0,0.0,98,0.00,,,0.74,0,Wunderground v.1.15,2013-12-29 03:01:00,
2013-12-28 21:06:00,45.4,44.9,29.99,WNW,298,0.0,0.0,98,0.00,,,0.74,0,Wunderground v.1.15,2013-12-29 03:06:00,
2013-12-28 21:12:00,45.4,44.9,29.99,WNW,298,0.0,0.0,98,0.00,,,0.74,0,Wunderground v.1.15,2013-12-29 03:12:00,
2013-12-28 21:17:00,45.4,44.9,29.99,WNW,298,0.0,0.0,98,0.00,,,0.74,0,Wunderground v.1.15,2013-12-29 03:17:00,
2013-12-28 21:22:00,45.4,44.9,29.99,WNW,298,0.0,0.0,98,0.00,,,0.74,0,Wunderground v.1.15,2013-12-29 03:22:00,
2013-12-28 21:27:00,45.4,44.9,29.99,WNW,298,0.0,0.0,98,0.00,,,0.74,0,Wunderground v.1.15,2013-12-29 03:27:00,
2013-12-28 21:32:00,45.4,44.9,29.99,WNW,298,0.0,0.0,98,0.00,,,0.74,0,Wunderground v.1.15,2013-12-29 03:32:00,
2013-12-28 21:38:00,45.4,44.9,29.98,WNW,298,0.0,0.0,98,0.00,,,0.74,0,Wunderground v.1.15,2013-12-29 03:38:00,
2013-12-28 21:44:00,45.4,44.9,29.97,WNW,298,0.0,0.0,98,0.00,,,0.74,0,Wunderground v.1.15,2013-12-29 03:44:00,
2013-12-28 21:49:00,45.3,44.8,29.96,WNW,298,0.0,0.0,98,0.00,,,0.74,0,Wunderground v.1.15,2013-12-29 03:49:00,
2013-12-28 21:54:00,45.3,44.8,29.96,WNW,298,0.0,0.0,98,0.00,,,0.74,0,Wunderground v.1.15,2013-12-29 03:54:00,
2013-12-28 21:59:00,45.3,44.8,29.97,WNW,298,0.0,0.0,98,0.00,,,0.74,0,Wunderground v.1.15,2013-12-29 03:59:00,
2013-12-28 22:05:00,45.3,44.8,29.98,WNW,298,0.0,0.0,98,0.00,,,0.74,0,Wunderground v.1.15,2013-12-29 04:05:00,
2013-12-28 22:11:00,45.3,44.8,29.97,WNW,298,0.0,0.0,98,0.00,,,0.74,0,Wunderground v.1.15,2013-12-29 04:11:00,
2013-12-28 22:16:00,45.3,44.8,29.96,WNW,298,0.0,0.0,98,0.00,,,0.74,0,Wunderground v.1.15,2013-12-29 04:16:00,
2013-12-28 22:21:00,45.3,44.8,29.95,WNW,298,0.0,0.0,98,0.00,,,0.74,0,Wunderground v.1.15,2013-12-29 04:21:00,
2013-12-28 22:27:00,45.2,44.7,29.95,WNW,298,0.0,1.0,98,0.00,,,0.74,0,Wunderground v.1.15,2013-12-29 04:27:00,
2013-12-28 22:32:00,45.2,44.7,29.95,WNW,298,0.0,0.0,98,0.00,,,0.74,0,Wunderground v.1.15,2013-12-29 04:32:00,
2013-12-28 22:46:00,45.2,44.7,29.94,WNW,298,0.0,0.0,98,0.00,,,0.74,0,Wunderground v.1.15,2013-12-29 04:46:00,
2013-12-28 22:52:00,45.2,44.7,29.95,WNW,298,0.0,0.0,98,0.00,,,0.74,0,Wunderground v.1.15,2013-12-29 04:52:00,
2013-12-28 22:57:00,45.2,44.7,29.97,WNW,298,0.0,0.0,98,0.00,,,0.74,0,Wunderground v.1.15,2013-12-29 04:57:00,
2013-12-28 23:01:00,45.3,44.8,29.98,WNW,298,0.0,0.0,98,0.00,,,0.74,0,Wunderground v.1.15,2013-12-29 05:01:00,
2013-12-28 23:08:00,45.3,44.8,29.99,WNW,298,0.0,2.0,98,0.00,,,0.74,0,Wunderground v.1.15,2013-12-29 05:08:00,
2013-12-28 23:09:00,45.3,44.8,30.00,WNW,298,0.0,2.0,98,0.00,,,0.74,0,Wunderground v.1.15,2013-12-29 05:09:00,
2013-12-28 23:10:00,45.4,44.9,30.00,WNW,297,0.0,4.0,98,0.00,,,0.74,0,Wunderground v.1.15,2013-12-29 05:10:00,
2013-12-28 23:11:00,45.3,44.8,30.00,WNW,297,1.0,4.0,98,0.00,,,0.74,0,Wunderground v.1.15,2013-12-29 05:11:00,
2013-12-28 23:14:00,45.4,44.9,30.00,WNW,297,1.0,4.0,98,0.00,,,0.74,0,Wunderground v.1.15,2013-12-29 05:14:00,
2013-12-28 23:20:00,45.4,44.9,29.98,WNW,297,0.0,0.0,98,0.00,,,0.74,0,Wunderground v.1.15,2013-12-29 05:20:00,
2013-12-28 23:29:00,45.3,44.8,29.97,WNW,297,0.0,0.0,98,0.00,,,0.74,0,Wunderground v.1.15,2013-12-29 05:29:00,
2013-12-28 23:35:00,45.3,44.8,29.96,WNW,297,0.0,0.0,98,0.00,,,0.74,0,Wunderground v.1.15,2013-12-29 05:35:00,
2013-12-28 23:40:00,45.2,44.7,29.96,WNW,297,0.0,0.0,98,0.00,,,0.74,0,Wunderground v.1.15,2013-12-29 05:40:00,